TimeEDT,TemperatureF,Dew PointF,Humidity,Sea Level PressureIn,VisibilityMPH,Wind Direction,Wind SpeedMPH,Gust SpeedMPH,PrecipitationIn,Events,Conditions,WindDirDegrees,DateUTC
12:53 AM,77.0,75.0,94,29.99,10.0,Calm,Calm,-,N/A,,Clear,0,2013-06-03 04:53:00
1:53 AM,77.0,73.9,90,29.97,10.0,South,4.6,-,N/A,,Clear,170,2013-06-03 05:53:00
2:53 AM,77.0,73.9,90,29.96,10.0,Calm,Calm,-,N/A,,Clear,0,2013-06-03 06:53:00
3:53 AM,75.9,73.9,94,29.94,10.0,Calm,Calm,-,N/A,,Clear,0,2013-06-03 07:53:00
4:53 AM,75.0,73.9,96,29.94,10.0,Calm,Calm,-,N/A,,Clear,0,2013-06-03 08:53:00
5:53 AM,75.0,73.9,96,29.95,10.0,Calm,Calm,-,N/A,,Clear,0,2013-06-03 09:53:00
6:53 AM,75.0,73.9,96,29.97,10.0,Calm,Calm,-,N/A,,Clear,0,2013-06-03 10:53:00
7:53 AM,78.1,73.9,87,29.99,10.0,Calm,Calm,-,N/A,,Mostly Cloudy,0,2013-06-03 11:53:00
8:53 AM,81.0,75.9,85,29.99,10.0,SW,4.6,-,N/A,,Clear,220,2013-06-03 12:53:00
9:53 AM,82.9,75.9,79,29.98,10.0,SSE,5.8,-,N/A,,Partly Cloudy,150,2013-06-03 13:53:00
10:53 AM,81.0,77.0,88,29.99,10.0,South,3.5,-,0.11,,Partly Cloudy,170,2013-06-03 14:53:00
11:53 AM,82.9,75.0,77,30.00,10.0,SE,8.1,-,N/A,,Mostly Cloudy,130,2013-06-03 15:53:00
12:53 PM,84.0,75.0,74,29.98,10.0,SSE,9.2,-,N/A,,Mostly Cloudy,150,2013-06-03 16:53:00
1:53 PM,82.9,72.0,69,29.97,10.0,SE,15.0,-,N/A,,Clear,130,2013-06-03 17:53:00
2:53 PM,84.0,72.0,67,29.95,10.0,SSE,12.7,-,N/A,,Clear,150,2013-06-03 18:53:00
3:53 PM,82.9,73.0,72,29.94,10.0,SE,12.7,-,N/A,,Scattered Clouds,140,2013-06-03 19:53:00
4:53 PM,81.0,75.9,85,29.94,10.0,SSE,13.8,-,N/A,,Scattered Clouds,150,2013-06-03 20:53:00
5:53 PM,81.0,75.9,85,29.94,10.0,SSE,12.7,-,N/A,,Mostly Cloudy,150,2013-06-03 21:53:00
6:38 PM,77.0,73.4,89,29.95,5.0,North,5.8,-,0.08,,Overcast,10,2013-06-03 22:38:00
6:53 PM,78.1,73.0,84,29.95,5.0,Variable,5.8,-,0.09,Rain,Light Rain,0,2013-06-03 22:53:00
7:18 PM,77.0,71.6,83,29.96,5.0,WSW,6.9,-,0.08,Rain,Rain,240,2013-06-03 23:18:00
7:26 PM,75.2,73.4,94,29.97,1.5,SW,8.1,-,0.16,Rain,Heavy Rain,230,2013-06-03 23:26:00
7:38 PM,75.2,73.4,94,29.96,0.5,West,5.8,-,0.35,Fog-Rain,Heavy Rain,270,2013-06-03 23:38:00
7:49 PM,75.2,75.2,100,29.96,1.0,South,4.6,-,0.46,Rain,Heavy Rain,170,2013-06-03 23:49:00
7:53 PM,75.0,73.9,96,29.96,1.0,ESE,4.6,-,0.51,Rain,Heavy Rain,120,2013-06-03 23:53:00
8:10 PM,75.2,75.2,100,29.97,2.5,East,3.5,-,0.16,Rain,Heavy Rain,90,2013-06-04 00:10:00
8:18 PM,75.2,75.2,100,29.97,6.0,Calm,Calm,-,0.17,Rain,Light Rain,0,2013-06-04 00:18:00
8:53 PM,75.9,75.9,100,29.99,9.0,North,3.5,-,0.17,Rain,Light Rain,360,2013-06-04 00:53:00
9:53 PM,75.9,75.9,100,30.01,10.0,Calm,Calm,-,0.03,,Mostly Cloudy,0,2013-06-04 01:53:00
10:53 PM,77.0,77.0,100,30.04,9.0,Calm,Calm,-,0.00,Rain,Light Rain,0,2013-06-04 02:53:00
11:53 PM,75.9,75.9,100,30.04,10.0,Calm,Calm,-,0.00,,Overcast,0,2013-06-04 03:53:00